Location: *
(60.1759°S, 155.0663°W)
Time: 15:12:52
(UTC+00:00)

Cosmos 1048 Rocket - Pass Details

Date: 17 September 2019
Orbit: 743 x 792 km, 74.0° (Epoch: 14 October)

Event Time Altitude Azimuth Distance (km) Brightness Sun altitude
Rises 14:28:36 0° 214° (SW) 3,325 7.2 -14.8°
Reaches altitude 10° 14:31:02 10° 212° (SSW) 2,386 6.4 -14.5°
Maximum altitude 14:36:29 79° 124° (SE) 813 4.2 -13.9°
Drops below altitude 10° 14:41:49 10° 37° (NE) 2,333 6.7 -13.3°
Sets 14:44:11 0° 35° (NE) 3,246 7.5 -13.0°
